Orbital Elements
Epoch 2013 Apr. 18.0 TT = JDT 2456400.5
T 2013 Apr. 10.78159 TT MPC
q 1.9504878 (2000.0) P Q
n 0.07469943 Peri. 169.00504 -0.97482327 -0.22266929
a 5.5837316 Node 358.01090 +0.17014435 -0.70875683
e 0.6506838 Incl. 19.78173 +0.14411975 -0.66938938
P 13.2
From 531 observations 1960 Apr. 16-2013 Feb. 21, mean residual 0".5.
Nongravitational parameters A1 = +0.26, A2 = -0.1094.
|